Location: Franzen
(48.6167°N, 15.3833°E)
Time: 13:46:46
(UTC+00:00)

SL-4 R/B - Pass Details

Date: 22 April 2021
Orbit: 427 x 663 km, 51.6° (Epoch: 16 May)

Event Time Altitude Azimuth Distance (km) Brightness Sun altitude
Rises 19:46:13 0° 233° (SW) 2,767 5.8 -15.8°
Reaches altitude 10° 19:48:25 10° 230° (SW) 1,909 4.9 -16.1°
Maximum altitude 19:52:45 62° 150° (SSE) 699 2.2 -16.6°
Drops below altitude 10° 19:57:23 10° 71° (ENE) 2,039 4.6 -17.2°
Enters shadow 19:57:58 - 70° (ENE) 2,261 4.9 -17.2°
